Rome, OR

8:17 AM MDT on March 28, 2017 (GMT -0600)
Rome State

Weather History for KREO - July, 2014

Change the Weather History Date:

Monday, July 7, 2014

  Actual Average Record
Temperature  
Mean Temperature 78 °F 70 °F  
Max Temperature 99 °F 90 °F 108 °F (1989)
Min Temperature 57 °F 51 °F 39 °F (2010)
Degree Days  
Heating Degree Days 0 1  
Month to date heating degree days 0 7  
Since 1 June heating degree days 59 132  
Since 1 July heating degree days 0 7  
Cooling Degree Days 13 6  
Month to date cooling degree days 90 38  
Year to date cooling degree days 150 110  
Since 1 June cooling degree days 139 100  
Growing Degree Days 28 (Base 50)    
Moisture  
Dew Point 36 °F    
Average Humidity 26    
Maximum Humidity 43    
Minimum Humidity 9    
Precipitation  
Precipitation 0.00 in 0.01 in 0.38 in (1982)
Month to date precipitation 0.00 0.08  
Year to date precipitation 2.16 5.70  
Sea Level Pressure  
Sea Level Pressure 29.93 in    
Wind  
Wind Speed 6 mph (NE)    
Max Wind Speed 14 mph    
Max Gust Speed 18 mph    
T = Trace of Precipitation, MM = Missing Value Source: NWS Daily Summary

Daily Weather History Graph

Daily Weather History Graph

Search for Another Location

Airport or City:

Trip Planner

Search our weather history database for the weather conditions in past years. The results will help you decide how hot, cold, wet, or windy it might be!

Date:

Astronomy

Jul. 07, 2014 Rise Set
Actual Time 5:21 AM PDT 8:31 PM PDT
Civil Twilight 4:46 AM PDT 9:05 PM PDT
Nautical Twilight 4:02 AM PDT 9:49 PM PDT
Astronomical Twilight 3:09 AM PDT 10:42 PM PDT
Moon 3:36 PM PDT (7/7) 1:21 AM PDT (7/7)
Length of Visible Light 16h 18m
Length of Day
15h 09m
Waxing Gibbous, 73% of the Moon is Illuminated
Jul 7
Waxing Gibbous
Jul 12
Full
Jul 18
Last Quarter
Jul 26
New
Aug 3
First Quarter

Hourly Weather History & Observations

Time (PDT) Temp. Dew Point Humidity Pressure Visibility Wind Dir Wind Speed Gust Speed Precip Events Conditions
12:52 AM 72.0 °F 41.0 °F 33% 29.96 in - ENE 5.8 mph - N/A   Unknown
1:52 AM 68.0 °F 39.9 °F 36% 29.97 in - NE 5.8 mph - N/A   Unknown
2:52 AM 66.0 °F 39.0 °F 37% 29.98 in - NE 5.8 mph - N/A   Unknown
3:52 AM 61.0 °F 37.0 °F 41% 29.99 in - Calm Calm - N/A   Unknown
4:52 AM 57.9 °F 35.1 °F 42% 30.01 in - SE 3.5 mph - N/A   Unknown
5:52 AM 60.1 °F 37.9 °F 44% 30.01 in - SE 5.8 mph - N/A   Unknown
6:52 AM 70.0 °F 39.9 °F 33% 30.00 in - SE 3.5 mph - N/A   Unknown
7:52 AM 75.9 °F 39.0 °F 26% 30.00 in - North 5.8 mph - N/A   Unknown
8:52 AM 80.1 °F 39.0 °F 23% 30.00 in - North 10.4 mph - N/A   Unknown
9:52 AM 82.9 °F 37.9 °F 20% 29.99 in - Variable 5.8 mph - N/A   Unknown
10:52 AM 86.0 °F 37.0 °F 18% 29.98 in - Calm Calm - N/A   Unknown
11:52 AM 88.0 °F 36.0 °F 16% 29.97 in - North - - N/A   Unknown
12:52 PM 93.0 °F 36.0 °F 13% 29.94 in - Variable 6.9 mph - N/A   Unknown
1:52 PM 95.0 °F 33.1 °F 11% 29.91 in - Variable 5.8 mph - N/A   Unknown
2:52 PM 95.0 °F 30.0 °F 10% 29.90 in - Variable 3.5 mph - N/A   Unknown
3:52 PM 96.1 °F 30.9 °F 10% 29.88 in - Variable 4.6 mph - N/A   Unknown
4:52 PM 97.0 °F 33.1 °F 11% 29.87 in - South 5.8 mph 16.1 mph N/A   Unknown
5:52 PM 99.0 °F 30.9 °F 9% 29.85 in - Variable 6.9 mph - N/A   Unknown
6:52 PM 97.0 °F 32.0 °F 10% 29.83 in - Variable 3.5 mph - N/A   Unknown
7:52 PM 93.9 °F 33.1 °F 12% 29.83 in - NE 6.9 mph - N/A   Unknown
8:52 PM 84.0 °F 33.1 °F 16% 29.86 in - NNW 8.1 mph - N/A   Unknown
9:52 PM 81.0 °F 33.1 °F 18% 29.87 in - NNE 10.4 mph - N/A   Unknown
10:52 PM 75.0 °F 34.0 °F 22% 29.88 in - NNE 9.2 mph - N/A   Unknown
11:52 PM 72.0 °F 36.0 °F 27% 29.89 in - NNE 8.1 mph - N/A   Unknown